Location: Brodie Road Observatory
(45.4241°N, 74.5431°W)
Time: 17:23:14
(UTC-04:00)

Daily predictions for brighter satellites

Satellite Brightness Start Highest point End
(mag) Time Altitude Azimuth Time Altitude Azimuth Time Altitude Azimuth
Helios 1B rocket 3.9 20:28:26 10° NE 20:31:18 18° E 20:34:09 10° SE
EXPRESS MD2 4.0 20:29:27 10° S 20:31:39 23° SE 20:34:56 10° ENE
Okean 1 3.3 20:29:44 10° N 20:33:43 70° E 20:37:41 10° SSE
Cosmos 44 Rocket 3.3 20:29:46 10° NNW 20:34:30 73° NE 20:39:18 10° SE
NOSS 3-1 (C) 3.5 20:29:03 10° SW 20:34:51 89° SE 20:41:27 10° NE
USA 186 2.0 20:36:25 10° S 20:39:45 81° WSW 20:43:09 10° NNW
Cosmos 1536 4.3 20:36:51 10° SE 20:39:46 19° E 20:42:40 10° NE
SeaSat 1 2.5 20:34:58 10° NE 20:39:51 58° ESE 20:44:42 10° SSW
Lacrosse 5 rocket 1.1 20:36:57 10° NW 20:40:38 82° NE 20:44:27 10° SE
Cosmos 2322 Rocket 3.1 20:36:08 10° SSE 20:40:48 27° ESE 20:45:28 10° NE
Spot 2 Rocket 3.6 20:35:45 10° SSE 20:40:51 83° WSW 20:46:00 10° NNW
Cosmos 2263 Rocket 3.2 20:36:06 10° N 20:41:12 32° NE 20:46:15 10° ESE
SWAS 4.4 20:38:57 10° NNW 20:43:15 83° ENE 20:47:31 10° SSE
Cosmos 1140 Rocket 3.6 20:38:08 10° NNW 20:43:20 61° ENE 20:48:32 10° SSE
Cosmos 1536 Rocket 4.1 20:39:43 10° N 20:43:48 39° ENE 20:47:52 10° SE
SL-8 R/B 4.2 20:39:44 10° W 20:44:29 62° N 20:49:16 10° ENE
Meteor 1-20 Rocket 4.3 20:40:13 10° SSW 20:45:47 83° W 20:51:19 10° N
Iridium 30 4.3 20:42:47 10° S 20:45:51 84° E 20:49:33 10° N
ARGOS 4.5 20:41:59 10° ESE 20:46:05 23° ENE 20:50:12 10° N
Cosmos 1954 Rocket 4.1 20:40:46 10° NNW 20:46:06 76° ENE 20:51:25 10° SSE
Cosmos 1441 Rocket 4.2 20:43:41 10° NNW 20:47:17 47° W 20:50:53 10° S
SL-16 R/B 2.9 20:45:01 10° SSE 20:49:55 31° ESE 20:54:51 10° NE
Cosmos 614 Rocket 4.0 20:48:44 10° NNW 20:53:49 64° ENE 20:58:54 10° SSE
Okean 2 Rocket 3.3 20:49:48 10° SSW 20:54:17 79° W 20:58:50 10° N
H-2A R/B 3.7 20:51:27 10° E 20:54:45 18° ENE 20:57:59 10° NNE
Meteor 1-29 4.1 20:55:19 10° NE 20:58:08 23° E 21:00:25 13° SE
Cosmos 1741 Rocket 4.5 20:53:10 10° N 20:58:13 45° ENE 21:02:40 13° SE
SPOT 5 4.3 20:57:52 12° ESE 21:01:05 22° ENE 21:04:41 10° NNE
Helios 1A 3.0 21:02:09 10° SSE 21:06:20 67° ENE 21:10:35 10° N
Lacrosse 5 3.3 21:03:35 10° SSE 21:06:29 15° ESE 21:09:22 10° E
Meteor 1-13 Rocket 4.3 21:00:48 10° N 21:06:48 80° E 21:12:45 10° SSE
ERBS 2.3 21:03:59 10° SW 21:07:25 63° SE 21:10:52 10° NE
Envisat 3.6 21:04:49 10° S 21:09:49 59° W 21:14:52 10° NNW
ERS-1 Rocket 3.4 21:06:07 14° SE 21:10:14 45° ENE 21:15:01 10° N
Cosmos 2360 Rocket 3.4 21:14:00 16° SE 21:16:19 21° E 21:20:24 10° NE
Cosmos 1980 Rocket 2.8 21:11:31 10° SW 21:17:04 61° WNW 21:22:38 10° NNE
ATLAS 3B R/B 3.5 21:11:07 10° NNW 21:17:27 38° NE 21:22:26 15° E
Atlas Centaur 2 3.9 21:12:26 10° SW 21:18:18 23° S 21:21:48 16° SE
Meteor 2-4 Rocket 3.7 21:13:52 10° N 21:19:23 73° ENE 21:24:41 12° SSE
NOSS 2-3 (D) 4.4 21:17:52 10° S 21:22:07 36° ESE 21:26:59 10° NE
MetOp-B 4.4 21:20:18 17° SE 21:24:14 52° ENE 21:29:26 10° N
YAOGAN 6 2.8 21:20:50 10° S 21:24:21 66° W 21:27:53 10° NNW
Cosmos 1633 4.4 21:22:03 10° SW 21:25:20 33° WNW 21:28:41 10° N
Cosmos 44 4.0 21:22:08 10° NW 21:26:19 42° WSW 21:30:11 12° S
S3M 4.3 21:21:03 10° NNW 21:27:15 72° W 21:33:32 10° S
Cosmos 1553 Rocket 4.5 21:24:54 10° NNW 21:31:00 61° W 21:36:58 10° S
Cosmos 2315 Rocket 4.2 21:25:18 10° N 21:31:24 52° ENE 21:35:36 20° SE
NOAA 11 4.2 21:28:33 15° SSE 21:33:08 79° ENE 21:38:40 10° NNW
Resurs 01 Rocket 4.2 21:33:14 10° SW 21:36:28 19° W 21:39:43 10° NW
Okean 1-7 Rocket 3.9 21:36:33 10° N 21:40:54 50° ENE 21:42:50 30° SE
Cosmos 2266 Rocket 3.8 21:35:15 10° S 21:41:17 81° E 21:47:21 10° N
Cosmos 1452 Rocket 4.3 21:36:16 10° SW 21:41:26 54° WNW 21:46:38 10° NNE
Cosmos 1850 Rocket 4.1 21:37:04 10° NNW 21:42:26 76° WSW 21:46:09 20° SSE
Cosmos 839 Rocket 4.3 21:37:26 10° SW 21:43:37 71° NW 21:50:00 10° NNE
Okean 1 Rocket 2.9 21:41:27 18° S 21:44:39 69° E 21:49:01 10° NNE
Meteor 1-11 Rocket 4.1 21:40:30 10° SSW 21:46:20 70° WNW 21:52:06 10° N
Cosmos 1420 Rocket 4.3 21:41:27 10° SSW 21:46:37 68° WNW 21:51:48 10° NNE
Cosmos 1607 4.0 21:40:50 10° NW 21:47:19 79° NE 21:51:05 27° SE
ATLAS 2AS CENTAUR R/B 3.1 21:41:04 10° S 21:48:27 53° ESE 21:56:15 10° NE
CZ-4B DEB 3.6 21:48:27 24° SSW 21:49:46 41° W 21:52:32 10° NNW
Cosmos 1300 Rocket 3.9 21:49:17 10° SSW 21:53:33 64° W 21:57:51 10° N
Cosmos 1975 4.2 21:54:09 23° ENE 21:54:09 23° ENE 21:56:49 10° NE
Cosmos 1331 Rocket 4.4 21:52:44 31° SE 21:54:20 39° ESE 21:59:10 10° NE
Abrixas rocket 3.0 21:51:53 10° W 21:55:05 49° N 21:56:35 26° ENE
Tiangong 1 1.8 21:52:36 10° W 21:54:37 35° SW 21:54:37 35° SW
SPOT 1/Viking Rocket 3.8 21:53:10 31° SE 21:55:24 52° ENE 22:00:29 10° N
NOSS 2-3 (E) 3.8 21:54:25 10° SSW 21:59:07 75° SE 22:04:40 10° NE
Terra 2.8 22:02:21 28° E 22:03:22 30° ENE 22:07:31 10° N
Cosmos 1025 Rocket 2.9 21:59:59 10° N 22:04:17 88° W 22:05:50 39° S
Helios 1B rocket 3.7 22:02:55 10° N 22:06:48 41° WNW 22:10:39 10° SW
USA 245 3.9 22:06:57 30° S 22:09:41 84° WSW 22:14:17 10° NNW
BREEZE-M DEB 3.6 22:01:04 10° WNW 22:10:04 66° N 22:11:23 37° E
MetOp-A 4.5 22:06:52 22° S 22:10:17 63° WSW 22:15:37 10° NNW
Cosmos 220 Rocket 4.1 22:09:13 10° NNW 22:13:30 68° WSW 22:14:45 44° S
Nimbus 7 Rocket 4.5 22:09:47 10° NNE 22:15:33 54° ESE 22:17:34 37° SSE
Cosmos 1536 4.4 22:12:10 10° SW 22:15:56 36° WNW 22:19:44 10° N
H-2A R/B 3.6 22:16:18 22° ENE 22:16:31 22° ENE 22:19:50 10° NNE
Lacrosse 5 rocket 3.5 22:17:30 10° W 22:19:21 13° SW 22:20:14 12° SW
Cosmos 2278 Rocket 3.9 22:15:43 10° N 22:19:53 20° NE 22:22:08 16° ENE
SL-08 RB Rocket 3.8 22:19:26 40° S 22:21:01 71° WSW 22:25:35 10° NNW
Cosmos 1238 Rocket 4.1 22:17:33 10° N 22:24:20 77° E 22:27:02 39° SSE
Cosmos 2322 Rocket 3.0 22:18:59 10° SW 22:24:31 51° WNW 22:30:06 10° NNE
Cosmos 2263 Rocket 3.0 22:19:53 10° NW 22:25:17 46° WSW 22:28:02 26° SSW
ARGOS 3.6 22:23:10 27° SSW 22:25:56 56° W 22:31:14 10° NNW
SL-8 R/B 3.8 22:22:34 10° WNW 22:27:22 73° NNE 22:28:42 47° E
BREEZE-M (TANK) 3.7 22:13:03 10° WNW 22:27:26 77° NNE 22:29:08 40° E
BREEZE-M DEB (TANK) 3.8 22:27:08 10° WSW 22:31:08 81° NNW 22:46:50 10° ENE
NOSS 2-3 (C) 4.3 22:28:03 10° SW 22:32:48 65° NW 22:38:30 10° NE
H-2A R/B 2.1 22:31:59 42° S 22:33:39 69° WSW 22:38:40 10° NNW
SL-16 R/B 3.3 22:28:27 10° SW 22:33:51 44° WNW 22:39:17 10° NNE
Cosmos 1844 Rocket 3.0 22:28:47 10° NNW 22:34:21 52° ENE 22:35:38 44° E
Cosmos 1892 Rocket 3.4 22:32:03 10° N 22:36:31 90° NNW 22:36:54 75° S
Cosmos 1515 4.3 22:33:58 10° NNW 22:37:39 48° W 22:38:01 46° WSW
SPOT 5 3.5 22:37:07 34° SSW 22:38:52 50° W 22:43:30 10° NNW
BREEZE M DEB (TANK) 3.4 22:33:12 10° WNW 22:39:00 48° N 22:39:30 44° NNE
Cosmos 2322 3.5 22:38:31 38° SSW 22:40:45 79° ESE 22:46:27 10° NNE
GP-B 3.9 22:38:58 10° NNE 22:42:30 39° ENE 22:42:30 39° ENE
USA 238 DEB 3.7 22:36:19 10° NW 22:43:27 89° ENE 22:45:49 47° SE
USA 238 3.7 22:36:25 10° NW 22:43:34 89° ENE 22:45:55 47° SE
NOSS 3-2 (A) 4.3 22:36:36 10° NW 22:43:53 59° NE 22:47:11 36° ESE
COSMOS 2428 2.9 22:47:38 50° E 22:47:38 50° E 22:52:53 10° NE
Cosmos 2219 Rocket 3.4 22:49:10 26° ENE 22:49:10 26° ENE 22:52:27 10° NE
Lacrosse 5 1.7 22:43:40 10° SW 22:48:44 82° SE 22:53:50 10° NE
EXPRESS MD2 4.3 22:45:34 10° W 22:49:11 61° N 22:56:37 10° ENE
Cosmos 1437 Rocket 4.1 22:54:17 33° NE 22:54:17 33° NE 22:56:41 10° NNE
Cosmos 1544 Rocket 3.5 22:55:01 83° NW 22:55:01 83° NW 22:59:26 10° N
Cosmos 405 4.1 22:56:25 44° NNW 22:56:25 44° NNW 22:59:08 10° N
ARGOS Delta rocket 4.4 22:51:18 10° NNE 22:54:43 43° ENE 22:54:43 43° ENE
Cosmos 1500 4.1 22:56:17 44° W 22:56:26 45° WNW 23:00:11 10° N
Nadezhda 1 Rocket 3.9 22:51:09 10° N 22:57:28 78° E 22:58:46 58° SSE
Cosmos 1844 3.8 22:54:04 10° NNW 22:59:43 63° ENE 23:00:23 59° E
Cosmos 2360 Rocket 2.5 22:55:38 18° SW 22:59:47 63° WNW 23:05:24 10° NNE
Cosmos 2333 Rocket 3.5 23:03:16 26° ENE 23:03:16 26° ENE 23:06:24 10° NE
Atlas Centaur 2 4.4 23:02:21 10° SW 23:04:26 15° SW 23:04:26 15° SW
Cosmos 1486 Rocket 4.0 23:01:38 10° NNW 23:06:52 67° WSW 23:07:12 65° SW
Cosmos 1455 Rocket 3.3 23:08:11 68° NW 23:08:11 68° NW 23:12:24 10° N
SL-19 R/B 4.5 23:01:51 10° NNE 23:08:08 64° ESE 23:08:41 62° SE
ATLAS 3B R/B 2.8 23:01:52 10° NW 23:08:27 58° WSW 23:09:41 50° SSW
DMSP B5D2-2 4.4 23:05:25 10° N 23:10:37 64° WNW 23:11:56 47° SW
Cosmos 1302 Rocket 4.0 23:10:20 69° SW 23:10:56 80° WNW 23:16:16 10° NNE
Cosmos 2333 4.1 23:12:02 71° E 23:12:02 71° E 23:17:26 10° NNE
Cosmos 1709 Rocket 4.2 23:15:15 52° E 23:15:15 52° E 23:21:13 10° NNE
Cosmos 724 4.2 23:14:21 10° NNW 23:20:18 76° NE 23:20:39 73° E
NOSS 3-2 (C) 4.0 23:12:57 10° NW 23:20:22 72° NE 23:22:35 50° ESE
CZ-2C R/B 3.9 23:25:28 35° NE 23:25:28 35° NE 23:29:12 10° N
ALOS 2 4.4 23:27:34 22° NE 23:27:34 22° NE 23:30:12 10° NNE
Cosmos 2237 Rocket 3.5 23:30:08 27° ENE 23:30:08 27° ENE 23:33:13 10° NE
Meteor 1-21 4.1 23:24:19 10° NNW 23:29:55 77° W 23:30:03 77° WSW
Cosmos 968 Rocket 4.3 23:28:05 10° N 23:32:34 41° NE 23:32:34 41° NE
BREEZE-M DEB (TANK) 4.0 23:14:37 10° WSW 23:33:09 82° NNW 23:36:20 24° ENE
Cosmos 1818 3.9 23:39:18 59° NE 23:39:18 59° NE 23:43:42 10° NE
ATLAS CENTAUR R/B 3.9 23:37:00 10° N 23:38:36 12° NNE 23:38:38 12° NE
ATLAS 2AS CENTAUR R/B 3.9 23:32:04 10° WSW 23:39:39 49° NW 23:47:32 10° NNE
Terra 3.1 23:41:15 33° W 23:41:15 33° W 23:45:21 10° NNW
Cosmos 1354 Rocket 4.3 23:35:48 10° NNW 23:40:39 62° W 23:40:39 62° W
USA 81 4.2 23:41:44 10° N 23:46:29 71° NNW 23:46:29 71° NNW
NOSS 3-4 (A) 3.8 23:50:30 55° ENE 23:50:30 55° ENE 23:55:47 10° NE
NOSS 3-4 (C) 3.8 23:50:38 54° ENE 23:50:38 54° ENE 23:55:53 10° NE
H-2A R/B 3.5 23:53:26 33° WNW 23:53:26 33° WNW 23:56:22 10° NNW
COSMOS 2455 3.9 23:49:00 10° NNW 23:54:29 35° NE 23:55:38 32° ENE
